Terug naar catalogus

DIAMANT B-P4 DEB

ActiefLEO
NORAD 7654·DEBRIS·🇫🇷 France

Gelanceerd Feb 6, 1975 vanaf Guiana Space Centre

Loading…

Volgende Passages (komende 24 uur)

TLE

VersSource: Space-Track

Epoch: Sep 14, 2026, 03:53 UTC

1 07654U 75010C   26257.16201493  .00000135  00000-0  18325-3 0  9994
2 07654  49.8435 185.6073 0171976  36.3564 324.8876 13.95879108622385

Volg DIAMANT B-P4 DEB in realtime met AllMySat

Download on the App Store